Flag for Canada Weather past 2 weeks in Yarmouth County, Nova Scotia, Canada

Now
63 °F

Broken clouds.


Feels Like: 63 °F
Forecast: 51 / 59 °F
Wind: 17 mph from Southwest

Location: Yarmouth

Current Time: May 28, 2015 at 3:28:01 PM

Latest Report: May 28, 2015 at 3:00 PM


Visibility: 10 mi

Pressure: 30.16 "Hg

Humidity: 77%

Dew point: 55 °F

Location of Yarmouth CountyLocation

Historic Weather in Yarmouth County — Graph

°F

Yarmouth County temperature yesterday

Maximum temperature yesterday: 64 °F (at 5:00 PM)
Minimum temperature yesterday: 52 °F (at 12:00 AM)
Average temperature yesterday: 57 °F

Past Weeks' High & Low Weather Summary

 TemperatureHumidityPressure
High64 °F (May 16, 3:00 PM)100% (May 15, 4:00 AM)30.31 "Hg (May 15, 4:00 AM)
Low37 °F (May 15, 4:00 AM)31% (May 14, 2:00 PM)29.58 "Hg (May 20, 4:00 PM)
Average50 °F81%30.10 "Hg
* Reported May 13 2:00 PM — May 28 2:00 PM, Yarmouth County, Weather by CustomWeather, © 2015

Note: Actual official high and low records may vary slightly from our data, if they occured in-between our weather recording intervals... More about our weather records

Advertising

Yarmouth County weather history for previous 24 hours

 ConditionsComfort  
Time TempWeatherWind HumidityBarometerVisibility
2:00 PM
Thu, May 28
63 °FBroken clouds.20 mph83%30.17 "Hg10 mi
1:00 PM59 °FOvercast.20 mph88%30.18 "Hg10 mi
12:00 PM57 °FOvercast.18 mph88%30.19 "Hg10 mi
11:00 AM59 °FMostly cloudy.22 mph88%30.18 "Hg10 mi
10:00 AM57 °FOvercast.21 mph88%30.18 "Hg8 mi
9:00 AM57 °FFog.23 mph94%30.17 "Hg5 mi
8:00 AM55 °FFog.22 mph94%30.18 "Hg6 mi
7:53 AM55 °FFog.22 mph94%30.19 "Hg6 mi
7:00 AM55 °FFog.23 mph100%30.17 "Hg4 mi
6:00 AM54 °FFog.21 mph100%30.16 "Hg2 mi
5:00 AM55 °FFog.22 mph94%30.15 "Hg1 mi
4:00 AM55 °FFog.17 mph94%30.15 "Hg2 mi
3:54 AM55 °FFog.20 mph94%30.15 "Hg3 mi
3:00 AM55 °FPassing clouds.21 mph94%30.15 "Hg10 mi
2:00 AM55 °FPassing clouds.18 mph100%30.16 "Hg12 mi
1:00 AM55 °FPassing clouds.22 mph94%30.17 "Hg12 mi
12:00 AM57 °FPassing clouds.22 mph94%30.19 "Hg12 mi
11:00 PM
Wed, May 27
57 °FPassing clouds.20 mph94%30.19 "Hg12 mi
10:00 PM57 °FPassing clouds.17 mph94%30.19 "Hg12 mi
9:00 PM57 °FPartly sunny.24 mph94%30.19 "Hg10 mi
8:00 PM59 °FPartly sunny.22 mph88%30.17 "Hg12 mi
7:00 PM61 °FPartly sunny.21 mph83%30.17 "Hg12 mi
6:00 PM63 °FScattered clouds.23 mph83%30.19 "Hg12 mi
5:00 PM64 °FPartly sunny.23 mph78%30.20 "Hg12 mi
4:00 PM63 °FPartly sunny.23 mph83%30.20 "Hg12 mi
3:00 PM61 °FPartly sunny.24 mph83%30.21 "Hg12 mi
Weather by CustomWeather, © 2015

See weather overviewHow to use our weather pages